Temperature
18 18 17 17 17 17 17 17 17 17 17 17 17 17 17 17 17 17 17 17 17 17 17 17 17 17 17 17 17 17 17 17 16 16 16 16 16 16 16 16 16 16 16
18 18 17 17 17 17 17 17 17 17 17 17 17 17 17 17 17 17 17 17 17 17 17 17 17 17 17 17 17 17 17 17 17 16 16 16 16 16 16 16 16 16 16
18 18 17 17 17 17 17 17 17 17 17 17 17 17 17 17 17 17 17 17 17 17 17 17 17 17 17 17 17 17 17 17 17 16 16 16 16 16 16 16 16 16 16
18 18 18 18 17 17 17 17 17 17 17 17 17 17 17 17 17 17 17 17 17 17 17 17 17 17 17 17 17 17 17 17 17 16 16 16 16 16 16 16 16 16 16
18 18 18 18 17 17 17 17 17 17 18 17 17 17 17 17 17 17 17 17 17 17 17 17 17 17 17 17 17 17 17 17 17 17 16 16 16 16 16 16 16 16 16
18 18 18 18 17 17 17 17 17 17 17 17 17 17 17 17 18 18 18 18 17 17 17 17 17 17 17 17 17 17 17 17 17 17 17 16 16 16 16 16 16 16 16
18 18 18 18 18 17 17 17 17 17 17 17 17 17 18 18 18 18 18 18 18 18 17 17 17 17 17 17 17 17 17 17 17 17 17 17 16 16 16 16 16 16 15
18 18 18 18 18 18 17 17 17 17 17 17 17 17 17 18 18 18 18 18 18 18 17 17 17 17 17 17 17 17 17 17 17 17 16 16 16 16 16 16 16 16 16
18 18 18 18 18 18 18 17 17 17 17 17 17 17 17 17 17 18 18 18 18 18 18 17 17 17 17 17 17 17 17 17 17 16 16 16 16 16 16 16 16 16 16
18 18 18 18 18 18 17 17 17 17 17 17 17 17 17 17 17 17 17 17 17 17 17 17 17 17 17 17 17 17 17 17 17 17 16 16 16 16 16 16 16 16 16
18 18 18 18 18 18 18 17 17 17 17 17 17 17 17 17 17 16 16 17 17 17 17 17 17 17 17 17 17 17 17 17 17 17 17 16 16 16 16 16 16 16 15
18 18 18 18 18 18 18 17 17 17 17 17 17 17 17 17 17 16 16 16 17 17 17 17 17 17 17 17 17 17 17 17 17 17 17 16 16 16 16 16 16 15 15
18 18 18 18 18 18 18 18 17 17 17 17 17 17 17 17 16 16 16 16 16 16 17 17 17 17 17 17 17 17 17 17 17 17 17 16 16 16 16 16 15 15 15
19 18 18 18 18 18 18 17 17 17 17 17 17 17 17 17 16 16 16 16 16 16 16 16 16 16 16 16 16 16 16 16 16 17 16 16 16 16 16 16 15 15 15
18 18 18 18 18 18 18 17 17 17 17 17 17 17 16 16 16 16 16 16 16 15 16 16 16 16 16 16 16 16 16 16 16 16 16 16 16 16 16 15 15 15 15
18 18 18 18 18 18 18 17 17 17 17 17 17 16 16 16 16 16 16 16 15 15 15 15 16 16 16 16 16 16 16 16 16 16 16 16 15 15 15 15 15 15 15
18 18 18 18 18 18 18 17 17 17 17 17 16 16 16 16 16 16 16 15 15 15 15 15 15 15 15 15 15 15 15 15 15 15 15 15 15 15 15 15 15 14 14
18 18 18 18 18 18 17 17 17 17 17 16 16 16 16 16 16 16 15 15 15 15 15 15 15 15 15 15 15 15 15 15 15 15 15 15 15 15 14 14 14 14 14
18 18 18 18 18 18 17 17 17 17 17 16 16 16 16 15 15 15 15 15 15 15 15 15 15 14 14 14 14 14 14 14 14 14 14 14 14 14 14 14 14 14 14
19 18 18 18 18 18 17 17 17 17 16 16 16 16 15 15 15 15 15 15 15 15 14 14 14 14 14 14 14 14 14 14 14 14 14 14 14 14 14 13 13 13 13
18 18 18 18 18 17 17 17 17 17 16 16 16 16 15 15 15 15 15 15 14 14 14 14 14 14 14 14 14 14 14 14 13 13 13 13 13 13 13 13 13 13 13
18 18 18 18 17 17 17 17 16 16 16 16 16 16 15 15 15 15 14 14 14 14 14 14 13 13 13 13 13 13 13 13 13 13 13 13 12 12 12 12 12 12 12
18 18 17 17 17 17 17 16 16 16 16 16 16 15 15 15 15 14 14 14 14 13 13 13 13 13 13 13 13 13 13 12 12 12 12 12 12 12 12 12 12 12 12
18 18 17 17 17 17 16 16 16 16 16 15 15 15 15 15 14 14 14 13 13 13 13 13 12 12 12 12 12 12 12 12 12 12 12 11 12 12 11 11 11 11 11
18 17 17 17 16 16 16 16 16 16 15 15 15 15 14 14 14 14 13 13 13 13 13 12 12 12 12 12 12 12 12 12 12 12 11 11 11 11 11 11 11 11 11
17 17 16 16 16 16 16 16 15 15 15 15 14 14 14 14 13 13 13 13 13 12 12 12 12 12 12 12 12 11 11 11 11 11 11 11 11 10 10 11 10 10 10
Wind_Speed
2 2 2 2 2 2 2 2 2 1 1 2 2 3 4 5 5 6 7 9 11 12 13 13 13 13 13 13 13 13 12 12 12 11 11 10 10 10 9 9 8 8 7
4 3 2 2 3 3 3 3 2 2 1 2 2 3 5 5 6 7 8 9 11 12 13 14 14 14 13 14 14 14 14 14 13 13 12 12 11 11 11 10 10 9 9
7 5 3 3 4 4 4 3 2 2 2 2 2 3 4 5 6 7 8 8 9 12 14 15 15 15 14 14 15 15 15 15 15 14 14 13 13 12 12 11 11 11 10
9 6 4 4 5 5 4 3 2 2 2 2 3 3 3 4 6 7 8 8 9 10 12 14 15 16 16 16 16 15 16 16 16 16 15 15 15 14 13 13 12 12 12
9 7 5 4 5 4 3 3 3 2 3 3 3 3 3 4 5 6 7 9 10 10 11 12 15 16 16 16 16 17 17 17 17 16 16 16 16 15 15 15 14 14 14
8 7 5 5 4 3 3 3 2 2 2 2 3 3 3 3 4 5 7 8 9 11 11 11 11 13 16 17 17 18 18 17 17 17 17 17 17 17 16 16 16 15 15
8 7 4 4 4 4 4 4 2 2 2 1 0 2 2 2 4 4 5 5 7 9 10 11 11 11 11 15 18 19 18 18 18 18 19 19 18 18 18 18 17 17 16
7 7 5 4 4 4 4 4 3 2 2 2 2 0 2 3 2 3 3 4 5 6 8 10 11 12 12 11 13 17 18 19 19 19 20 20 20 20 20 19 19 18 18
6 6 6 5 5 5 4 5 5 5 3 2 3 3 2 3 2 2 2 3 4 4 6 7 9 11 12 12 12 14 17 18 18 19 19 19 20 20 20 20 20 20 19
5 6 5 5 4 4 4 5 5 4 4 3 2 3 3 3 2 2 2 2 3 4 5 5 7 8 10 11 12 14 16 17 18 18 18 19 19 19 20 20 20 20 20
3 4 4 4 4 3 4 4 4 5 4 4 3 3 3 3 3 3 4 3 2 3 4 5 5 6 8 9 10 12 15 16 17 17 17 17 17 18 19 19 20 20 20
2 3 3 3 3 3 4 4 4 5 4 4 4 3 3 3 4 4 5 5 4 3 3 4 4 5 6 7 10 12 14 14 15 16 16 17 17 16 17 17 18 18 18
2 3 2 3 3 4 4 4 4 4 5 5 5 5 5 5 3 3 4 4 4 3 2 3 3 4 5 6 7 9 10 12 12 13 15 15 15 15 15 15 16 17 16
3 3 2 3 3 3 3 3 3 4 4 5 6 5 4 5 5 5 4 4 4 3 3 4 2 3 4 5 6 7 7 9 9 11 12 12 13 12 13 13 13 14 15
3 3 3 2 2 2 2 2 2 3 3 4 4 4 4 4 4 5 4 4 4 5 5 4 3 2 3 4 5 5 6 7 8 9 9 9 10 10 11 11 11 11 12
3 3 2 2 2 1 1 1 2 2 2 3 3 3 3 3 3 3 3 4 5 5 5 3 3 2 2 3 4 4 5 6 7 7 7 7 7 8 8 9 10 10 10
3 3 3 2 1 1 1 1 2 2 2 2 2 2 3 2 2 2 2 3 3 4 6 4 2 2 2 3 3 3 3 3 3 4 5 5 5 5 6 7 7 8 8
3 3 3 2 2 1 1 2 2 1 1 2 2 2 2 2 2 2 2 3 3 4 4 5 3 2 3 2 2 2 2 2 1 1 3 3 4 4 4 5 6 6 6
3 3 3 3 2 2 2 2 2 1 1 2 2 1 2 1 2 2 2 2 2 3 3 3 3 2 2 1 1 1 1 1 1 0 1 1 2 2 3 3 4 4 4
5 4 3 3 2 2 2 2 2 1 1 1 0 1 1 2 2 2 2 2 2 2 2 2 2 2 2 1 1 1 1 1 1 1 1 1 0 1 1 2 3 3 3
5 4 3 2 2 2 2 2 2 2 1 0 0 0 1 2 2 2 2 2 2 1 1 1 2 1 2 1 1 1 1 1 1 0 1 1 1 1 1 1 1 0 0
4 4 3 3 2 2 2 3 3 2 2 2 0 1 1 2 3 2 2 2 1 1 1 2 2 2 3 2 1 1 1 1 1 0 0 1 0 0 1 1 1 1 1
5 4 4 3 2 1 2 2 3 3 2 1 0 1 1 2 2 2 2 2 2 3 1 1 2 2 2 2 1 1 1 1 1 1 1 1 1 1 1 1 0 1 2
5 4 3 3 2 1 1 2 3 3 2 1 0 0 1 2 2 2 1 2 2 2 2 1 1 2 2 1 1 2 2 1 0 0 0 1 1 2 1 1 1 1 1
4 3 3 3 3 1 1 2 3 2 2 1 1 1 1 2 3 2 1 1 2 3 3 2 1 1 2 2 1 1 1 1 1 1 0 1 1 1 1 2 1 2 3
5 4 3 3 3 1 1 3 4 2 2 1 1 1 2 2 3 3 1 1 1 3 3 3 3 3 3 2 2 1 1 1 0 1 1 1 1 0 1 1 1 1 2
Wind_Direction
205 211 203 193 194 192 180 167 158 159 179 204 218 208 211 214 213 211 215 217 218 216 214 212 212 212 209 208 207 206 208 208 208 208 208 210 209 208 208 207 205 206 207
205 207 209 204 212 211 211 200 196 196 221 231 250 231 222 223 221 220 224 226 226 221 219 219 218 219 218 218 216 216 216 215 215 214 214 215 214 214 214 213 211 212 214
206 201 203 210 216 207 205 209 218 210 232 239 251 246 231 225 224 227 227 227 229 229 227 225 225 225 225 223 222 223 223 223 220 218 218 219 218 219 219 218 216 216 218
209 199 202 218 216 203 196 196 206 209 232 240 248 250 233 225 231 232 230 230 228 231 232 231 230 229 229 229 227 228 229 228 225 222 221 222 222 221 221 223 224 223 223
209 199 206 218 208 196 197 210 199 198 221 235 247 249 239 231 231 232 230 232 229 230 231 235 234 233 234 235 234 233 232 231 228 226 225 225 224 224 224 227 227 227 228
207 202 207 211 195 194 212 209 206 208 222 232 258 269 254 241 235 233 233 234 233 231 231 233 236 238 237 238 238 236 235 233 231 227 228 227 227 227 226 228 228 229 229
209 201 211 201 190 202 215 207 196 214 226 175 172 310 298 257 244 239 234 234 234 232 232 232 234 236 241 242 241 239 238 236 233 230 229 229 229 229 228 229 230 230 230
210 208 204 205 200 206 217 211 194 193 215 177 168 212 319 322 291 256 240 235 238 233 235 236 233 234 238 242 243 240 240 240 240 236 233 230 228 228 229 230 231 230 231
215 214 209 201 200 200 216 219 202 196 211 208 190 172 192 248 301 303 261 250 248 240 241 240 236 237 238 239 242 242 241 241 243 243 239 234 231 230 231 231 231 231 232
219 217 211 202 201 199 215 227 214 207 200 219 217 214 211 193 218 295 302 270 261 252 250 246 243 240 240 239 238 238 240 239 242 244 242 239 235 232 232 233 234 234 233
224 217 209 203 204 209 224 228 218 213 207 213 211 207 215 215 216 228 270 283 282 261 254 250 247 246 243 240 240 241 240 239 241 242 241 241 240 237 234 235 237 238 236
228 223 210 206 209 214 227 231 223 220 221 222 221 214 209 211 211 217 244 261 269 269 258 255 250 250 248 244 244 245 244 241 240 240 241 240 240 240 238 238 238 239 240
226 231 212 207 215 219 225 230 229 233 227 228 230 231 231 234 222 213 232 254 260 266 262 254 245 251 252 248 250 253 252 246 241 240 239 239 240 240 240 240 241 242 242
224 221 208 218 220 217 225 227 240 243 237 235 240 235 236 239 230 223 222 233 261 263 250 252 248 240 251 250 255 255 256 250 246 242 241 240 241 242 240 240 244 247 244
221 212 207 211 218 213 218 222 248 256 248 245 247 245 246 247 237 234 230 228 238 263 266 243 237 242 242 248 258 259 255 255 252 249 244 243 242 239 238 238 239 241 243
208 197 206 205 205 206 216 206 244 260 255 261 255 253 259 262 248 239 234 236 233 239 257 250 238 253 248 266 272 268 265 267 258 250 247 241 238 237 238 238 238 239 239
195 197 205 200 196 211 207 202 242 264 265 277 279 267 276 275 267 259 242 237 237 237 254 269 251 266 253 267 288 283 280 279 274 251 241 232 232 235 241 245 242 236 234
195 190 186 180 200 212 200 204 238 259 259 274 281 282 289 298 293 291 271 256 246 235 242 264 271 263 260 269 274 276 288 285 286 260 222 220 221 229 237 241 241 240 237
186 180 182 186 202 204 206 215 219 234 241 255 260 265 285 289 298 296 284 278 270 256 240 246 261 251 257 273 277 286 294 308 324 315 176 191 214 231 243 248 247 245 238
189 182 182 185 195 200 210 210 200 209 224 253 274 278 302 301 298 299 289 280 276 268 249 249 260 263 265 274 256 293 317 326 316 10 29 54 109 171 262 282 265 250 236
185 169 169 177 188 203 229 210 194 181 166 139 27 338 314 314 309 306 307 293 271 255 254 255 270 286 281 295 284 268 283 312 303 357 349 18 50 43 28 7 352 340 197
168 159 175 185 196 227 217 189 177 164 154 150 144 331 344 346 346 352 1 8 9 261 256 254 255 269 270 273 277 257 244 301 282 342 295 308 99 31 346 354 11 101 115
168 168 177 180 193 209 193 181 179 158 146 145 141 334 339 350 351 345 350 11 21 23 22 261 271 276 279 276 263 256 246 247 253 265 238 259 256 258 282 313 227 159 143
166 170 168 163 163 145 140 149 152 143 127 114 93 346 327 332 345 340 352 20 15 8 355 321 270 287 297 299 250 240 234 229 251 359 198 238 271 268 279 277 255 206 197
161 166 157 152 152 131 108 148 147 132 121 93 55 39 16 349 353 25 73 13 354 344 359 22 25 345 1 43 82 108 96 119 281 262 239 225 245 274 261 258 250 236 226
165 163 155 151 151 147 125 142 143 135 135 118 52 37 40 34 25 52 87 69 347 333 348 8 19 24 22 33 57 104 169 158 311 258 222 223 219 220 259 247 261 256 243
Height
1560 1560 1561 1562 1562 1563 1564 1565 1566 1566 1567 1568 1569 1570 1571 1572 1572 1573 1574 1574 1574 1574 1575 1575 1576 1577 1578 1578 1579 1580 1581 1582 1583 1584 1584 1585 1586 1587 1587 1588 1589 1589 1590
1560 1561 1562 1562 1563 1563 1564 1565 1566 1567 1568 1568 1569 1570 1570 1571 1572 1572 1573 1573 1573 1574 1574 1574 1575 1575 1576 1577 1578 1579 1579 1580 1581 1582 1583 1584 1585 1585 1586 1587 1587 1588 1588
1560 1561 1562 1562 1563 1564 1564 1565 1566 1567 1567 1568 1569 1569 1570 1570 1571 1571 1572 1572 1572 1573 1573 1573 1573 1574 1575 1575 1576 1577 1578 1579 1579 1580 1581 1582 1583 1584 1584 1585 1585 1586 1586
1560 1561 1561 1562 1563 1564 1564 1564 1565 1566 1566 1567 1568 1568 1568 1569 1569 1569 1570 1570 1571 1571 1571 1571 1572 1572 1573 1573 1574 1575 1576 1576 1577 1578 1579 1580 1581 1581 1582 1583 1583 1584 1584
1559 1560 1561 1562 1562 1563 1564 1564 1564 1565 1565 1566 1566 1566 1567 1567 1567 1567 1568 1568 1568 1569 1569 1570 1570 1570 1570 1571 1572 1572 1573 1574 1575 1575 1576 1577 1578 1579 1579 1580 1580 1581 1581
1558 1559 1560 1560 1561 1562 1562 1563 1563 1564 1564 1564 1565 1565 1565 1565 1565 1565 1565 1565 1566 1566 1567 1567 1567 1567 1568 1568 1569 1570 1570 1571 1572 1572 1573 1574 1575 1575 1576 1577 1577 1578 1578
1556 1557 1558 1559 1560 1560 1561 1562 1562 1562 1563 1563 1563 1563 1563 1562 1562 1562 1562 1562 1563 1563 1564 1564 1564 1564 1565 1566 1566 1567 1567 1568 1568 1569 1570 1570 1571 1572 1572 1573 1574 1574 1575
1554 1555 1557 1557 1558 1559 1559 1560 1560 1560 1561 1561 1561 1561 1560 1561 1559 1559 1559 1559 1560 1560 1560 1561 1561 1561 1561 1562 1562 1563 1563 1564 1564 1565 1565 1566 1567 1568 1569 1569 1570 1570 1571
1552 1554 1555 1555 1556 1557 1557 1558 1558 1558 1559 1559 1559 1560 1559 1558 1557 1557 1557 1557 1557 1557 1557 1557 1557 1557 1557 1557 1558 1559 1559 1559 1560 1561 1561 1562 1563 1564 1564 1565 1566 1566 1567
1551 1552 1553 1553 1554 1554 1555 1555 1556 1556 1556 1556 1556 1556 1557 1556 1556 1554 1554 1554 1554 1554 1554 1553 1553 1553 1553 1553 1553 1554 1555 1555 1556 1556 1557 1558 1558 1559 1559 1560 1561 1562 1562
1549 1550 1551 1551 1552 1552 1552 1553 1553 1553 1553 1553 1553 1553 1553 1553 1553 1553 1551 1551 1551 1551 1550 1550 1549 1549 1549 1549 1549 1549 1550 1550 1551 1552 1552 1553 1553 1554 1555 1555 1556 1556 1557
1548 1549 1549 1550 1550 1550 1550 1550 1550 1550 1550 1550 1550 1550 1550 1550 1550 1549 1548 1547 1547 1547 1546 1546 1545 1545 1545 1544 1544 1545 1545 1546 1546 1547 1547 1547 1548 1549 1549 1550 1550 1551 1552
1546 1546 1547 1547 1547 1547 1548 1548 1548 1548 1548 1547 1547 1547 1547 1547 1547 1546 1546 1544 1543 1542 1542 1542 1541 1541 1540 1540 1540 1540 1540 1541 1541 1542 1542 1542 1543 1544 1544 1545 1545 1546 1546
1544 1544 1545 1545 1545 1545 1545 1545 1545 1545 1545 1544 1544 1544 1543 1543 1543 1542 1542 1541 1539 1538 1538 1537 1537 1537 1537 1536 1536 1536 1536 1536 1536 1536 1537 1537 1538 1538 1539 1539 1539 1540 1540
1542 1542 1542 1542 1543 1543 1542 1542 1542 1542 1542 1541 1541 1540 1540 1539 1539 1538 1538 1538 1537 1535 1533 1533 1533 1533 1533 1532 1532 1531 1531 1531 1531 1531 1532 1532 1533 1533 1533 1533 1533 1534 1534
1540 1540 1540 1540 1540 1540 1540 1540 1539 1539 1539 1538 1537 1537 1536 1535 1535 1534 1534 1533 1533 1532 1530 1528 1529 1529 1528 1528 1527 1527 1527 1527 1527 1527 1527 1527 1527 1528 1528 1528 1528 1528 1528
1538 1538 1538 1538 1538 1538 1538 1538 1537 1536 1536 1535 1535 1534 1533 1532 1531 1530 1530 1529 1528 1528 1526 1525 1525 1524 1524 1523 1523 1523 1522 1522 1522 1522 1522 1522 1522 1522 1522 1523 1523 1523 1523
1536 1536 1536 1536 1536 1536 1536 1536 1535 1534 1534 1533 1532 1531 1530 1529 1528 1527 1526 1525 1525 1524 1523 1522 1521 1520 1520 1519 1519 1519 1518 1518 1518 1518 1518 1518 1518 1517 1518 1518 1518 1518 1517
1533 1533 1533 1533 1534 1534 1534 1533 1533 1532 1531 1530 1529 1529 1528 1527 1525 1524 1523 1522 1521 1520 1520 1519 1518 1517 1516 1516 1515 1515 1514 1514 1514 1514 1514 1513 1513 1513 1513 1513 1513 1513 1513
1529 1529 1530 1531 1531 1531 1531 1530 1530 1529 1528 1528 1527 1526 1526 1525 1523 1522 1520 1519 1518 1517 1516 1515 1515 1514 1513 1512 1512 1511 1511 1510 1510 1510 1510 1510 1510 1509 1509 1509 1509 1509 1509
1526 1526 1527 1528 1529 1529 1528 1528 1527 1526 1526 1525 1524 1523 1523 1522 1521 1519 1518 1516 1515 1513 1513 1512 1511 1511 1510 1509 1509 1508 1508 1507 1507 1507 1507 1506 1506 1506 1505 1505 1505 1505 1505
1523 1524 1524 1525 1525 1526 1526 1525 1525 1524 1523 1522 1522 1521 1520 1519 1518 1517 1515 1514 1513 1512 1510 1509 1508 1508 1507 1507 1506 1506 1505 1505 1504 1504 1504 1503 1503 1502 1502 1503 1502 1502 1502
1519 1520 1521 1522 1522 1523 1523 1522 1522 1521 1520 1520 1519 1518 1517 1516 1515 1514 1513 1512 1511 1509 1508 1508 1506 1505 1504 1503 1503 1503 1502 1501 1501 1501 1501 1500 1500 1500 1500 1499 1499 1499 1499
1516 1517 1518 1518 1519 1519 1520 1519 1519 1518 1518 1517 1516 1515 1514 1514 1512 1511 1511 1510 1508 1507 1506 1505 1504 1503 1502 1501 1500 1500 1499 1499 1498 1498 1498 1498 1497 1497 1497 1497 1497 1496 1496
1513 1514 1515 1515 1516 1516 1517 1516 1516 1516 1515 1514 1513 1512 1511 1510 1510 1508 1508 1507 1506 1505 1504 1503 1502 1501 1500 1499 1498 1498 1497 1496 1495 1495 1495 1495 1494 1494 1494 1494 1494 1493 1493
1509 1511 1512 1512 1513 1513 1513 1513 1513 1513 1512 1511 1510 1510 1509 1508 1507 1506 1505 1504 1503 1503 1502 1500 1499 1498 1498 1497 1496 1495 1495 1494 1493 1493 1493 1492 1492 1491 1491 1491 1491 1490 1490